Location: Allisons_Woods
(35.8920°N, 81.8170°W)
Time: 07:22:57
(UTC-05:00)

Daily predictions for brighter satellites

Satellite Brightness Start Highest point End
(mag) Time Altitude Azimuth Time Altitude Azimuth Time Altitude Azimuth
SKYMED 2 4.0 18:40:47 10° N 18:45:07 70° WNW 18:49:24 10° SSW
NOAA 12 4.3 18:42:18 10° SSE 18:47:26 52° ENE 18:52:37 10° N
Abrixas rocket 2.2 18:45:42 10° SW 18:49:02 78° SE 18:52:24 10° NE
Cosmos 1741 Rocket 4.3 18:46:17 10° S 18:51:15 46° ESE 18:56:13 10° NNE
Cosmos 2322 Rocket 3.3 18:46:23 10° NNW 18:51:47 49° WSW 18:57:10 10° S
FREGAT/IRIS 3.4 18:49:15 10° SE 18:52:00 30° ENE 18:54:46 10° N
Meteor 1-28 Rocket 3.6 18:48:13 10° N 18:52:01 69° WNW 18:55:48 10° SSW
Tiangong 2 2.7 18:51:34 10° W 18:54:21 31° SW 18:57:07 10° SSE
Cosmos 1484 Rocket 4.4 18:52:13 10° S 18:55:57 40° W 18:59:39 10° NNW
Genesis I 4.2 18:52:48 10° N 18:56:14 28° NE 18:59:39 10° ESE
GPS 2-04 Rocket1 3.0 18:53:54 10° WSW 18:58:05 64° SSE 19:01:59 12° E
Okean 1-7 Rocket 4.4 18:54:30 10° NNE 18:58:27 29° ENE 19:02:21 10° SE
Cosmos 1536 Rocket 3.7 18:54:01 10° N 18:58:31 86° W 19:02:59 10° S
GEOS 3 Rocket 4.3 18:54:07 10° NE 18:58:53 35° ESE 19:03:41 10° S
Cosmos 1633 2.7 18:59:12 10° S 19:02:52 81° W 19:06:34 10° N
Cosmos 1140 Rocket 3.7 18:59:55 10° SSW 19:05:02 75° WNW 19:10:12 10° NNE
METEOR-M 4.1 19:00:21 10° SSE 19:05:40 78° ENE 19:11:01 10° N
Cosmos 614 Rocket 3.9 19:03:09 10° SSW 19:08:14 87° ESE 19:13:20 10° NNE
Hubble Space Telescope 2.5 19:07:08 10° SW 19:10:13 20° SSE 19:12:51 12° ESE
Cosmos 2322 3.7 19:06:01 10° NNW 19:11:45 76° ENE 19:17:26 10° SSE
Cosmos 1570 Rocket 4.3 19:06:49 10° N 19:11:51 46° ENE 19:16:51 10° SE
SJ-6B 2.8 19:08:47 10° SSE 19:12:45 66° ENE 19:16:39 10° N
ATLAS CENTAUR R/B 2.7 19:08:04 10° SSW 19:13:04 28° SE 19:14:33 19° E
Meteor 1-19 Rocket 4.2 19:10:20 10° N 19:16:04 79° E 19:21:51 10° SSE
ATLAS 2A CENTAUR R/B 3.4 19:16:01 10° SW 19:18:06 18° SSE 19:22:12 10° SE
Cosmos 1300 Rocket 4.2 19:16:42 10° SSW 19:21:03 61° W 19:25:27 10° N
Helios 1A 4.2 19:23:44 21° ENE 19:24:00 21° ENE 19:27:09 10° NNE
Cosmos 405 Rocket 4.3 19:21:06 10° NNE 19:23:32 19° ENE 19:23:32 19° ENE
USA 229 DEB 4.2 19:18:01 10° NNW 19:24:45 42° NE 19:29:54 17° ESE
USA 229 4.2 19:18:08 10° NNW 19:24:50 41° NE 19:29:56 17° ESE
CZ-2D R/B 4.2 19:24:00 23° E 19:24:53 26° ENE 19:28:05 10° NNE
Gbstr 26 Del rocket 4.5 19:22:38 10° W 19:25:57 27° NNW 19:29:11 10° NNE
H-2A R/B 3.2 19:22:46 10° SE 19:26:08 35° ENE 19:29:35 10° N
Spot 2 Rocket 3.7 19:21:22 10° SE 19:26:10 46° ENE 19:31:01 10° N
Cosmos 2297 Rocket 3.6 19:23:56 10° SE 19:26:20 17° ESE 19:26:20 17° ESE
Cosmos 2237 Rocket 3.6 19:23:53 10° NNE 19:27:39 18° NE 19:28:14 18° ENE
Okean 2 4.2 19:24:06 10° NNE 19:27:47 29° ENE 19:29:23 23° ESE
Cosmos 2333 4.5 19:23:06 10° N 19:28:36 47° ENE 19:33:43 12° SE
COSMOS 2428 2.8 19:23:49 10° NNW 19:29:24 54° ENE 19:34:57 10° SE
Cosmos 2237 4.1 19:23:41 10° NNW 19:29:25 71° ENE 19:35:05 10° SSE
DELTA 2 R/B (1) 4.0 19:24:00 10° WNW 19:29:32 60° SSW 19:33:55 16° SE
Helios 1B rocket 3.2 19:27:33 10° NE 19:31:12 29° E 19:34:48 10° SSE
Cosmos 1238 Rocket 3.7 19:31:17 10° NNW 19:34:04 38° W 19:36:57 10° SSW
Meteor 2-4 Rocket 3.5 19:28:35 10° N 19:34:06 80° E 19:39:28 10° SSE
Resurs 01 Rocket 1.6 19:30:37 10° SSE 19:34:55 58° ENE 19:39:16 10° N
SL-19 R/B 4.3 19:29:49 10° SSE 19:35:23 63° ENE 19:41:20 10° N
Atlas Centaur 2 4.0 19:31:05 10° SSW 19:36:04 19° SSE 19:38:25 16° SE
Meteor 1-23 Rocket 4.2 19:31:24 10° N 19:37:11 69° E 19:42:52 10° SSE
Cosmos 2360 Rocket 3.1 19:35:48 10° NNW 19:41:16 51° WSW 19:46:43 10° S
Cosmos 2208 Rocket 4.0 19:36:08 10° NNW 19:41:37 82° ENE 19:46:58 10° SSE
Cosmos 2219 Rocket 2.7 19:36:37 10° N 19:41:48 37° ENE 19:43:37 30° E
Cosmos 1536 3.6 19:38:10 10° SSW 19:42:04 53° W 19:45:59 10° N
Envisat 4.5 19:44:07 19° NE 19:44:07 19° NE 19:46:35 10° NNE
Cosmos 2327 Rocket 4.4 19:37:10 10° S 19:43:22 79° E 19:49:42 10° N
Cosmos 2219 3.6 19:38:30 10° SSW 19:44:12 66° WNW 19:49:55 10° NNE
HJ-1C 3.7 19:43:07 10° S 19:46:28 65° W 19:49:50 10° NNW
Cosmos 2227 Rocket 2.6 19:42:29 10° S 19:47:38 38° ESE 19:49:26 30° ENE
Resurs 1-3 3.5 19:43:28 10° SSE 19:47:49 68° ENE 19:52:11 10° N
SL-16 R/B 4.2 19:59:29 10° NNE 20:00:37 13° NNE 20:00:37 13° NNE
Cosmos 2074 Rocket 4.4 19:56:54 10° SSW 20:03:05 66° W 20:09:21 10° N
OTV 4 1.9 20:00:29 10° WSW 20:02:21 34° SW 20:02:21 34° SW
Spot 1 3.9 20:03:52 62° NE 20:03:52 62° NE 20:07:41 10° N
Cosmos 1892 Rocket 3.5 20:02:50 10° N 20:06:48 64° NE 20:06:48 64° NE
Cosmos 2184 Rocket 4.5 20:02:09 10° SSW 20:08:24 62° W 20:14:36 10° N
SAR-Lupe-4 4.3 20:10:00 45° NNW 20:10:00 45° NNW 20:12:35 10° NNW
Cosmos 1486 Rocket 4.5 20:04:03 10° S 20:07:58 42° SE 20:07:58 42° SE
ALOS 3.6 20:07:00 10° SSW 20:11:22 39° W 20:15:46 10° NNW
Cosmos 1025 Rocket 4.0 20:09:27 10° NNW 20:13:40 47° W 20:17:53 10° SSW
Cosmos 2333 Rocket 2.1 20:18:04 10° NNW 20:23:49 69° ENE 20:23:54 69° ENE
Cosmos 1980 4.0 20:21:30 10° NNW 20:26:08 51° NNE 20:26:08 51° NNE
Cosmos 1544 Rocket 4.0 20:23:57 10° SSW 20:28:13 59° W 20:32:29 10° N
Nadezhda 3 Rocket 3.8 20:23:55 10° N 20:30:06 82° E 20:31:35 55° SSE
Cosmos 2341 Rocket 3.9 20:28:32 10° S 20:34:53 82° E 20:41:18 10° N
Cosmos 2154 Rocket 4.2 20:31:21 10° SSW 20:37:41 71° W 20:44:00 10° N
GPS 2-04 Rocket1 4.1 20:33:39 10° W 20:36:30 41° W 20:36:30 41° W
NOSS 0 Rocket 3.8 20:35:45 10° NNW 20:41:55 85° WSW 20:42:07 83° SSW
Cosmos 2082 3.9 20:43:19 10° SSW 20:48:27 66° WSW 20:48:27 66° WSW
Hubble Space Telescope 3.4 20:47:22 10° WSW 20:48:14 15° SW 20:48:14 15° SW
Cosmos 2297 Rocket 3.8 21:05:40 10° SW 21:08:19 27° SW 21:08:19 27° SW
Cosmos 2237 Rocket 3.4 21:06:32 10° NNW 21:10:07 38° NW 21:10:07 38° NW
Atlas Centaur 2 4.4 21:18:54 10° SW 21:21:05 19° SW 21:21:05 19° SW
Cosmos 2219 Rocket 4.0 21:20:58 10° NW 21:25:25 26° W 21:25:25 26° W
NOSS 3-1 (A) 4.5 21:21:00 10° NNW 21:26:48 56° NNW 21:26:48 56° NNW
Cosmos 2227 Rocket 4.0 21:27:00 10° WSW 21:31:29 27° WNW 21:31:29 27° WNW
CZ-3 Stage 3 4.3 21:11:44 10° WSW 21:32:49 44° SSW 21:32:49 44° SSW
